SCP
0 0 0 0 0 0 0 0 0 0 0 0 0 0 0 0 0 0 0 0 0 0 0 0 0 0 0
0 0 0 0 0 0 0 0 0 0 0 0 0 0 0 0 0 0 0 0 0 0 0 0 0 0 0
0 0 0 0 0 0 0 0 0 0 0 0 0 0 0 0 0 0 0 0 0 0 0 0 0 0 0
0 0 0 0 0 0 0 0 0 0 0 0 0 0 0 0 0 0 0 0 0 0 0 0 0 0 0
0 0 0 0 0 0 0 0 0 0 0 0 0 0 0 0 0 0 0 0 0 0 0 0 0 0 0
0 0 0 0 0 0 0 0 0 0 0 0 0 0 0 0 0 0 0 0 0 0 0 0 0 0 0
0 0 0 0 0 0 0 0 0 0 0 0 0 0 0 0 0 0 0 0 0 0 0 0 0 0 0
0 0 0 0 0 0 0 0 0 0 0 0 0 0 0 0 0 0 0 0 0 0 0 0 0 0 0
0 0 0 0 0 0 0 0 0 0 0 0 0 0 0 0 0 0 0 0 0 0 0 0 0 0 0
0 0 0 0 0 0 0 0 0 0 0 0 0 0 0 0 0 0 0 0 0 0 0 0 0 0 0
0 0 0 0 0 0 0 0 0 0 0 0 0 0 0 0 0 0 0 0 0 0 0 0 0 0 0
0 0 0 0 0 0 0 0 0 0 0 0 0 0 0 0 0 0 0 0 0 0 0 0 0 0 0
0 0 0 0 0 0 0 0 0 0 0 0 0 0 0 0 0 0 0 0 0 0 0 0 0 0 0
0 0 0 0 0 0 0 0 0 0 0 0 0 0 0 0 0 0 0 0 0 0 0 0 0 0 0
0 0 0 0 0 0 0 0 0 0 0 0 0 0 0 0 0 0 0 0 0 0 0 0 0 0 0
0 0 0 0 0 0 0 0 0 0 0 0 0 0 0 0 0 0 0 0 0 0 0 0 0 0 0
0 0 0 0 0 0 0 0 0 0 0 0 0 0 0 0 0 0 0 0 0 0 0 0 0 0 0
Wind_Speed_500mb
63 65 63 58 56 60 69 68 61 55 53 52 53 54 56 57 59 60 63 65 65 64 65 65 66 69 69
71 69 66 55 59 54 46 45 48 51 51 50 50 50 54 57 62 59 57 60 65 63 64 62 63 62 63
80 71 71 62 59 59 48 44 49 47 44 44 44 48 49 52 58 59 50 48 51 55 58 56 58 59 58
75 76 70 69 58 61 59 39 41 44 42 44 42 44 40 42 47 53 52 50 50 51 53 51 52 54 56
75 76 75 70 66 58 47 42 47 52 44 32 33 30 37 35 36 42 48 47 48 49 50 50 51 52 53
68 68 69 69 63 51 46 48 49 34 40 45 38 35 33 22 35 34 41 42 39 38 39 43 49 51 52
73 81 71 72 69 61 50 48 51 53 56 58 45 38 39 38 28 29 29 29 31 34 37 41 43 45 45
60 65 69 82 83 74 65 61 62 64 52 53 42 36 33 39 42 39 37 38 36 37 39 40 41 42 42
56 64 65 58 57 63 63 58 62 52 20 33 47 42 37 33 34 36 39 37 35 36 36 39 38 40 42
54 54 58 62 60 59 59 59 53 48 38 24 28 23 21 26 30 42 42 43 43 40 38 39 38 36 34
61 59 56 56 61 59 62 60 55 59 49 43 46 32 29 39 44 34 34 39 45 40 37 39 43 42 37
63 66 59 60 58 58 57 57 51 48 48 47 42 35 34 39 40 44 43 39 42 41 44 38 34 32 31
65 60 60 59 58 58 59 55 49 46 47 45 43 35 32 36 43 43 37 39 41 45 41 39 34 30 28
59 63 60 56 59 58 62 59 50 45 47 45 40 37 36 40 41 42 37 27 23 39 40 38 35 33 31
58 57 60 58 58 60 63 58 49 50 46 44 37 35 41 41 41 38 35 36 37 36 41 40 37 35 34
60 54 53 56 61 64 61 55 49 52 46 46 46 43 43 39 37 34 33 35 37 39 42 42 41 39 38
61 56 50 51 56 61 54 50 49 49 48 48 47 46 41 39 34 25 30 32 36 39 42 44 43 40 38
Wind_Direction_500mb
274 278 282 284 277 266 265 271 276 276 275 274 269 266 262 257 255 256 256 257 256 257 260 260 260 259 261
276 281 288 291 294 288 284 278 278 278 278 277 273 269 267 261 253 252 254 255 254 253 258 259 262 263 263
274 277 283 290 294 298 292 289 279 281 275 269 263 265 271 268 254 245 248 251 250 250 255 258 261 262 262
273 274 276 284 288 296 300 296 287 289 292 275 276 273 271 271 257 241 244 249 253 254 257 257 258 260 263
269 272 273 274 280 294 291 290 286 290 293 287 268 267 266 261 266 240 243 248 251 254 255 259 263 266 268
269 263 269 273 278 281 287 294 292 284 293 290 285 261 264 273 258 253 247 247 251 255 259 263 266 269 270
267 260 268 272 276 274 276 278 275 276 290 293 301 284 255 262 268 265 255 245 251 256 261 265 268 271 271
263 267 264 263 268 270 274 278 279 282 289 289 299 293 262 258 258 256 260 253 256 258 261 268 269 268 272
268 261 263 261 266 265 264 271 280 283 279 282 297 304 291 278 260 257 261 258 254 249 260 268 269 267 268
279 271 257 261 261 261 263 267 269 275 281 266 282 297 304 296 273 254 254 258 258 260 259 265 263 262 266
277 272 266 259 258 259 260 264 271 258 262 269 275 279 273 272 274 273 263 263 257 255 261 269 266 257 257
278 271 267 261 260 258 261 269 268 259 263 265 267 279 289 295 287 271 266 263 256 253 265 264 265 248 252
276 275 273 262 264 260 261 267 261 250 254 254 258 264 277 289 292 284 271 264 260 251 249 247 240 237 233
277 274 275 268 260 258 258 265 256 247 249 252 255 266 279 280 283 280 268 252 251 241 236 235 231 224 222
279 276 270 270 260 255 248 258 240 241 241 251 257 269 280 280 274 270 261 252 249 242 231 226 221 215 211
282 274 268 263 259 253 241 247 239 240 239 247 256 266 269 267 268 262 255 249 242 234 223 219 213 206 204
279 272 269 263 256 247 245 242 238 238 243 247 251 252 247 248 259 265 246 241 232 221 217 215 215 209 207
Wind_Speed_850mb
63 65 63 58 56 60 69 68 61 55 53 52 53 54 56 57 59 60 63 65 65 64 65 65 66 69 69
71 69 66 55 59 54 46 45 48 51 51 50 50 50 54 57 62 59 57 60 65 63 64 62 63 62 63
80 71 71 62 59 59 48 44 49 47 44 44 44 48 49 52 58 59 50 48 51 55 58 56 58 59 58
75 76 70 69 58 61 59 39 41 44 42 44 42 44 40 42 47 53 52 50 50 51 53 51 52 54 56
75 76 75 70 66 58 47 42 47 52 44 32 33 30 37 35 36 42 48 47 48 49 50 50 51 52 53
68 68 69 69 63 51 46 48 49 34 40 45 38 35 33 22 35 34 41 42 39 38 39 43 49 51 52
73 81 71 72 69 61 50 48 51 53 56 58 45 38 39 38 28 29 29 29 31 34 37 41 43 45 45
60 65 69 82 83 74 65 61 62 64 52 53 42 36 33 39 42 39 37 38 36 37 39 40 41 42 42
56 64 65 58 57 63 63 58 62 52 20 33 47 42 37 33 34 36 39 37 35 36 36 39 38 40 42
54 54 58 62 60 59 59 59 53 48 38 24 28 23 21 26 30 42 42 43 43 40 38 39 38 36 34
61 59 56 56 61 59 62 60 55 59 49 43 46 32 29 39 44 34 34 39 45 40 37 39 43 42 37
63 66 59 60 58 58 57 57 51 48 48 47 42 35 34 39 40 44 43 39 42 41 44 38 34 32 31
65 60 60 59 58 58 59 55 49 46 47 45 43 35 32 36 43 43 37 39 41 45 41 39 34 30 28
59 63 60 56 59 58 62 59 50 45 47 45 40 37 36 40 41 42 37 27 23 39 40 38 35 33 31
58 57 60 58 58 60 63 58 49 50 46 44 37 35 41 41 41 38 35 36 37 36 41 40 37 35 34
60 54 53 56 61 64 61 55 49 52 46 46 46 43 43 39 37 34 33 35 37 39 42 42 41 39 38
61 56 50 51 56 61 54 50 49 49 48 48 47 46 41 39 34 25 30 32 36 39 42 44 43 40 38
Wind_Direction_850mb
274 278 282 284 277 266 265 271 276 276 275 274 269 266 262 257 255 256 256 257 256 257 260 260 260 259 261
276 281 288 291 294 288 284 278 278 278 278 277 273 269 267 261 253 252 254 255 254 253 258 259 262 263 263
274 277 283 290 294 298 292 289 279 281 275 269 263 265 271 268 254 245 248 251 250 250 255 258 261 262 262
273 274 276 284 288 296 300 296 287 289 292 275 276 273 271 271 257 241 244 249 253 254 257 257 258 260 263
269 272 273 274 280 294 291 290 286 290 293 287 268 267 266 261 266 240 243 248 251 254 255 259 263 266 268
269 263 269 273 278 281 287 294 292 284 293 290 285 261 264 273 258 253 247 247 251 255 259 263 266 269 270
267 260 268 272 276 274 276 278 275 276 290 293 301 284 255 262 268 265 255 245 251 256 261 265 268 271 271
263 267 264 263 268 270 274 278 279 282 289 289 299 293 262 258 258 256 260 253 256 258 261 268 269 268 272
268 261 263 261 266 265 264 271 280 283 279 282 297 304 291 278 260 257 261 258 254 249 260 268 269 267 268
279 271 257 261 261 261 263 267 269 275 281 266 282 297 304 296 273 254 254 258 258 260 259 265 263 262 266
277 272 266 259 258 259 260 264 271 258 262 269 275 279 273 272 274 273 263 263 257 255 261 269 266 257 257
278 271 267 261 260 258 261 269 268 259 263 265 267 279 289 295 287 271 266 263 256 253 265 264 265 248 252
276 275 273 262 264 260 261 267 261 250 254 254 258 264 277 289 292 284 271 264 260 251 249 247 240 237 233
277 274 275 268 260 258 258 265 256 247 249 252 255 266 279 280 283 280 268 252 251 241 236 235 231 224 222
279 276 270 270 260 255 248 258 240 241 241 251 257 269 280 280 274 270 261 252 249 242 231 226 221 215 211
282 274 268 263 259 253 241 247 239 240 239 247 256 266 269 267 268 262 255 249 242 234 223 219 213 206 204
279 272 269 263 256 247 245 242 238 238 243 247 251 252 247 248 259 265 246 241 232 221 217 215 215 209 207